Location: Lombard
(41.8800°N, 88.0080°W)
Time: 10:06:20
(UTC-06:00)

Tiangong - Visible Passes

Search period start: 02 December 2023 00:00
Search period end: 12 December 2023 00:00
Orbit: 373 x 384 km, 41.5° (Epoch: 01 December)

Date Brightness Start Highest point End Pass type
(mag) Time Alt. Az. Time Alt. Az. Time Alt. Az.
02 Dec 0.6 17:52:33 10° WSW 17:54:46 18° SSW 17:56:58 10° SSE visible
03 Dec -0.1 16:50:27 10° W 16:53:13 28° SSW 16:55:59 10° SE visible
04 Dec 1.2 17:26:41 10° SW 17:27:44 11° SSW 17:28:45 10° SSW visible
